| time (UTC) | temp F | wind direction | speed knots | gust knots | rain 1hr in | rain 24hr in | rain mn in | humidity % | barometer mb |
| 20260510182516 | 56 | 327 | 10.4 | 18.2 | 0.00 | 0.00 | 0.00 | 34 | 1017.7 |
| 20260510182015 | 56 | 330 | 10.4 | 18.2 | 0.00 | 0.00 | 0.00 | 33 | 1017.6 |
| 20260510181516 | 56 | 305 | 7.0 | 15.6 | 0.00 | 0.00 | 0.00 | 34 | 1017.6 |
| 20260510181015 | 56 | 283 | 8.7 | 15.6 | 0.00 | 0.00 | 0.00 | 32 | 1017.6 |
| 20260510180637 | 56 | 285 | 8.7 | 16.5 | 0.00 | 0.00 | 0.00 | 33 | 1017.5 |
| 20260510180015 | 56 | 302 | 10.4 | 16.5 | 0.00 | 0.00 | 0.00 | 33 | 1017.3 |
| 20260510175515 | 57 | 326 | 6.1 | 14.8 | 0.00 | 0.00 | 0.00 | 34 | 1017.3 |
| 20260510175037 | 57 | 334 | 7.0 | 14.8 | 0.00 | 0.00 | 0.00 | 36 | 1017.2 |
| 20260510174515 | 56 | 278 | 7.0 | 13.0 | 0.00 | 0.00 | 0.00 | 34 | 1017.2 |
| 20260510174015 | 56 | 306 | 7.8 | 13.0 | 0.00 | 0.00 | 0.00 | 35 | 1017.1 |
| 20260510173535 | 56 | 328 | 7.8 | 15.6 | 0.00 | 0.00 | 0.00 | 34 | 1017.1 |
| 20260510173017 | 56 | 347 | 9.6 | 15.6 | 0.00 | 0.00 | 0.00 | 35 | 1017.0 |
| 20260510172515 | 56 | 346 | 8.7 | 14.8 | 0.00 | 0.00 | 0.00 | 36 | 1016.9 |
| 20260510172015 | 56 | 340 | 7.8 | 16.5 | 0.00 | 0.00 | 0.00 | 36 | 1016.9 |
| 20260510171515 | 55 | 293 | 9.6 | 16.5 | 0.00 | 0.00 | 0.00 | 34 | 1016.9 |
| 20260510171035 | 56 | 280 | 7.8 | 11.3 | 0.00 | 0.00 | 0.00 | 33 | 1017.0 |
| 20260510170535 | 56 | 300 | 6.1 | 14.8 | 0.00 | 0.00 | 0.00 | 37 | 1017.1 |
| 20260510170016 | 56 | 317 | 8.7 | 14.8 | 0.00 | 0.00 | 0.00 | 35 | 1017.1 |
| 20260510165515 | 55 | 258 | 8.7 | 13.9 | 0.00 | 0.00 | 0.00 | 36 | 1017.1 |
| 20260510165016 | 55 | 307 | 9.6 | 13.9 | 0.00 | 0.00 | 0.00 | 36 | 1017.1 |
| 20260510164536 | 55 | 297 | 7.0 | 13.9 | 0.00 | 0.00 | 0.00 | 36 | 1017.0 |
| 20260510164015 | 55 | 302 | 5.2 | 13.9 | 0.00 | 0.00 | 0.00 | 36 | 1017.1 |
| 20260510163515 | 55 | 284 | 8.7 | 13.9 | 0.00 | 0.00 | 0.00 | 36 | 1017.0 |
| 20260510163015 | 55 | 286 | 7.0 | 12.2 | 0.00 | 0.00 | 0.00 | 38 | 1017.1 |
| 20260510162516 | 55 | 273 | 3.5 | 9.6 | 0.00 | 0.00 | 0.00 | 42 | 1017.1 |
| 20260510162015 | 54 | 290 | 5.2 | 11.3 | 0.00 | 0.00 | 0.00 | 37 | 1017.0 |
| 20260510161555 | 55 | 330 | 7.0 | 11.3 | 0.00 | 0.00 | 0.00 | 37 | 1017.1 |
| 20260510161036 | 55 | 304 | 5.2 | 9.6 | 0.00 | 0.00 | 0.00 | 37 | 1017.0 |
| 20260510160516 | 55 | 337 | 3.5 | 8.7 | 0.00 | 0.00 | 0.00 | 40 | 1017.0 |
| 20260510160035 | 54 | 358 | 2.6 | 10.4 | 0.00 | 0.00 | 0.00 | 39 | 1017.0 |
| 20260510155515 | 54 | 351 | 7.0 | 13.9 | 0.00 | 0.00 | 0.00 | 37 | 1017.0 |
| 20260510155055 | 54 | 353 | 5.2 | 13.9 | 0.00 | 0.00 | 0.00 | 39 | 1017.0 |
| 20260510154515 | 54 | 269 | 1.7 | 8.7 | 0.00 | 0.00 | 0.00 | 39 | 1017.0 |
| 20260510154015 | 54 | 301 | 6.1 | 8.7 | 0.00 | 0.00 | 0.00 | 37 | 1017.1 |
| 20260510153535 | 54 | 262 | 2.6 | 7.0 | 0.00 | 0.00 | 0.00 | 38 | 1017.0 |
| 20260510153036 | 54 | 25 | 1.7 | 7.0 | 0.00 | 0.00 | 0.00 | 35 | 1016.9 |
| 20260510152515 | 54 | 39 | 2.6 | 7.8 | 0.00 | 0.00 | 0.00 | 37 | 1017.0 |
| 20260510152017 | 53 | 28 | 4.3 | 11.3 | 0.00 | 0.00 | 0.00 | 38 | 1017.0 |
| 20260510151517 | 53 | 9 | 6.1 | 11.3 | 0.00 | 0.00 | 0.00 | 40 | 1017.0 |
| 20260510151015 | 53 | 266 | 3.5 | 9.6 | 0.00 | 0.00 | 0.00 | 41 | 1016.9 |
| 20260510150538 | 52 | 305 | 5.2 | 8.7 | 0.00 | 0.00 | 0.00 | 35 | 1016.8 |
| 20260510150018 | 53 | 287 | 1.7 | 8.7 | 0.00 | 0.00 | 0.00 | 41 | 1016.8 |
| 20260510145518 | 53 | 341 | 3.5 | 8.7 | 0.00 | 0.00 | 0.00 | 40 | 1016.7 |
| 20260510145017 | 53 | 7 | 2.6 | 7.0 | 0.00 | 0.00 | 0.00 | 42 | 1016.7 |
| 20260510144537 | 52 | 299 | 2.6 | 6.1 | 0.00 | 0.00 | 0.00 | 40 | 1016.7 |
| 20260510144037 | 53 | 324 | 0.9 | 6.1 | 0.00 | 0.00 | 0.00 | 40 | 1016.7 |
| 20260510143517 | 53 | 63 | 0.0 | 7.0 | 0.00 | 0.00 | 0.00 | 44 | 1016.7 |
| 20260510143037 | 52 | 8 | 2.6 | 7.0 | 0.00 | 0.00 | 0.00 | 44 | 1016.7 |
| 20260510142517 | 52 | 26 | 0.9 | 4.3 | 0.00 | 0.00 | 0.00 | 45 | 1016.6 |
| 20260510142017 | 52 | 85 | 0.0 | 5.2 | 0.00 | 0.00 | 0.00 | 43 | 1016.5 |
| 20260510141517 | 52 | 82 | 1.7 | 7.0 | 0.00 | 0.00 | 0.00 | 44 | 1016.6 |
| 20260510141017 | 51 | 29 | 3.5 | 7.0 | 0.00 | 0.00 | 0.00 | 44 | 1016.5 |
| 20260510140515 | 51 | 34 | 2.6 | 6.1 | 0.00 | 0.00 | 0.00 | 43 | 1016.4 |
| 20260510140017 | 51 | 282 | 0.9 | 6.1 | 0.00 | 0.00 | 0.00 | 44 | 1016.4 |
| 20260510135517 | 51 | 6 | 1.7 | 4.3 | 0.00 | 0.00 | 0.00 | 43 | 1016.4 |
| 20260510135017 | 51 | 71 | 0.9 | 5.2 | 0.00 | 0.00 | 0.00 | 42 | 1016.3 |
| 20260510134537 | 51 | 21 | 2.6 | 9.6 | 0.00 | 0.00 | 0.00 | 41 | 1016.3 |
| 20260510134017 | 50 | 17 | 3.5 | 9.6 | 0.00 | 0.00 | 0.00 | 42 | 1016.2 |
| 20260510133518 | 50 | 79 | 0.0 | 2.6 | 0.00 | 0.00 | 0.00 | 44 | 1016.2 |
| 20260510133017 | 50 | 311 | 0.9 | 2.6 | 0.00 | 0.00 | 0.00 | 47 | 1016.1 |
| 20260510132538 | 50 | 292 | 0.0 | 1.7 | 0.00 | 0.00 | 0.00 | 48 | 1016.1 |
| 20260510132018 | 50 | 127 | 0.0 | 0.9 | 0.00 | 0.00 | 0.00 | 50 | 1016.1 |
| 20260510131517 | 49 | 0.0 | 1.7 | 0.00 | 0.00 | 0.00 | 54 | 1016.1 | |
| 20260510131037 | 49 | 100 | 0.0 | 5.2 | 0.00 | 0.00 | 0.00 | 56 | 1016.1 |
| 20260510130517 | 49 | 95 | 0.9 | 5.2 | 0.00 | 0.00 | 0.00 | 55 | 1016.1 |
| 20260510130018 | 48 | 72 | 0.0 | 3.5 | 0.00 | 0.00 | 0.00 | 57 | 1016.1 |
| 20260510125516 | 47 | 94 | 0.9 | 4.3 | 0.00 | 0.00 | 0.00 | 57 | 1016.1 |
| 20260510125018 | 47 | 127 | 0.0 | 4.3 | 0.00 | 0.00 | 0.00 | 61 | 1016.1 |
| 20260510124518 | 46 | 0.0 | 0.0 | 0.00 | 0.00 | 0.00 | 65 | 1016.0 | |
| 20260510124017 | 45 | 0.0 | 0.0 | 0.00 | 0.00 | 0.00 | 69 | 1015.9 | |
| 20260510123517 | 44 | 0.0 | 0.0 | 0.00 | 0.00 | 0.00 | 73 | 1015.8 | |
| 20260510123016 | 44 | 0.0 | 0.0 | 0.00 | 0.00 | 0.00 | 74 | 1015.7 | |
| 20260510122518 | 43 | 0.0 | 0.0 | 0.00 | 0.00 | 0.00 | 76 | 1015.7 | |
| 20260510122017 | 42 | 0.0 | 0.0 | 0.00 | 0.00 | 0.00 | 78 | 1015.6 | |
| 20260510121516 | 42 | 0.0 | 0.0 | 0.00 | 0.00 | 0.00 | 82 | 1015.5 | |
| 20260510121037 | 41 | 0.0 | 0.0 | 0.00 | 0.00 | 0.00 | 85 | 1015.4 | |
| 20260510120517 | 40 | 0.0 | 0.0 | 0.00 | 0.00 | 0.00 | 86 | 1015.4 | |
| 20260510120017 | 39 | 0.0 | 0.0 | 0.00 | 0.00 | 0.00 | 87 | 1015.2 | |
| 20260510115516 | 38 | 0.0 | 0.0 | 0.00 | 0.00 | 0.00 | 88 | 1015.2 | |
| 20260510115018 | 38 | 0.0 | 0.0 | 0.00 | 0.00 | 0.00 | 89 | 1015.0 | |
| 20260510114517 | 37 | 0.0 | 0.0 | 0.00 | 0.00 | 0.00 | 89 | 1015.0 | |
| 20260510114017 | 36 | 0.0 | 0.0 | 0.00 | 0.00 | 0.00 | 88 | 1015.0 | |
| 20260510113516 | 36 | 0.0 | 0.0 | 0.00 | 0.00 | 0.00 | 88 | 1014.8 | |
| 20260510113017 | 35 | 0.0 | 0.0 | 0.00 | 0.00 | 0.00 | 88 | 1014.7 | |
| 20260510112517 | 35 | 0.0 | 0.0 | 0.00 | 0.00 | 0.00 | 88 | 1014.6 | |
| 20260510112016 | 35 | 0.0 | 0.0 | 0.00 | 0.00 | 0.00 | 88 | 1014.6 | |
| 20260510111518 | 34 | 0.0 | 0.0 | 0.00 | 0.00 | 0.00 | 87 | 1014.6 | |
| 20260510111018 | 34 | 0.0 | 0.0 | 0.00 | 0.00 | 0.00 | 87 | 1014.5 | |
| 20260510110516 | 34 | 0.0 | 0.0 | 0.00 | 0.00 | 0.00 | 86 | 1014.4 | |
| 20260510110016 | 34 | 0.0 | 0.0 | 0.00 | 0.00 | 0.00 | 85 | 1014.4 | |
| 20260510105516 | 34 | 0.0 | 0.0 | 0.00 | 0.00 | 0.00 | 85 | 1014.4 | |
| 20260510105036 | 34 | 0.0 | 0.0 | 0.00 | 0.00 | 0.00 | 84 | 1014.3 | |
| 20260510104517 | 34 | 0.0 | 0.0 | 0.00 | 0.00 | 0.00 | 84 | 1014.3 | |
| 20260510104016 | 34 | 0.0 | 0.0 | 0.00 | 0.00 | 0.00 | 84 | 1014.2 | |
| 20260510103516 | 34 | 0.0 | 0.0 | 0.00 | 0.00 | 0.00 | 84 | 1014.2 | |
| 20260510103016 | 34 | 0.0 | 0.0 | 0.00 | 0.00 | 0.00 | 83 | 1014.2 | |
| 20260510102516 | 35 | 0.0 | 0.0 | 0.00 | 0.00 | 0.00 | 83 | 1014.2 | |
| 20260510102016 | 35 | 0.0 | 0.0 | 0.00 | 0.00 | 0.00 | 83 | 1014.2 | |
| 20260510101518 | 35 | 0.0 | 0.0 | 0.00 | 0.00 | 0.00 | 83 | 1014.1 | |
| 20260510101016 | 35 | 0.0 | 0.0 | 0.00 | 0.00 | 0.00 | 83 | 1014.0 | |
| 20260510100516 | 35 | 0.0 | 0.0 | 0.00 | 0.00 | 0.00 | 82 | 1013.9 | |
| 20260510100016 | 35 | 0.0 | 0.0 | 0.00 | 0.00 | 0.00 | 82 | 1013.9 | |
| 20260510095517 | 35 | 0.0 | 0.0 | 0.00 | 0.00 | 0.00 | 82 | 1013.8 | |
| 20260510095017 | 35 | 0.0 | 0.0 | 0.00 | 0.00 | 0.00 | 82 | 1013.7 | |
| 20260510094516 | 36 | 0.0 | 0.0 | 0.00 | 0.00 | 0.00 | 82 | 1013.6 | |
| 20260510094016 | 36 | 0.0 | 0.0 | 0.00 | 0.00 | 0.00 | 82 | 1013.6 | |
| 20260510093517 | 36 | 0.0 | 0.0 | 0.00 | 0.00 | 0.00 | 81 | 1013.6 | |
| 20260510093016 | 36 | 0.0 | 0.0 | 0.00 | 0.00 | 0.00 | 80 | 1013.5 | |
| 20260510092516 | 37 | 0.0 | 0.0 | 0.00 | 0.00 | 0.00 | 80 | 1013.5 | |
| 20260510092016 | 37 | 0.0 | 0.0 | 0.00 | 0.00 | 0.00 | 79 | 1013.4 | |
| 20260510091536 | 37 | 0.0 | 0.0 | 0.00 | 0.00 | 0.00 | 78 | 1013.3 | |
| 20260510091037 | 37 | 0.0 | 0.0 | 0.00 | 0.00 | 0.00 | 78 | 1013.2 | |
| 20260510090517 | 37 | 0.0 | 0.0 | 0.00 | 0.00 | 0.00 | 78 | 1013.1 | |
| 20260510090018 | 38 | 0.0 | 0.0 | 0.00 | 0.00 | 0.00 | 78 | 1013.1 | |
| 20260510085517 | 38 | 0.0 | 0.0 | 0.00 | 0.00 | 0.00 | 78 | 1013.0 | |
| 20260510085016 | 38 | 0.0 | 0.0 | 0.00 | 0.00 | 0.00 | 78 | 1012.9 | |
| 20260510084516 | 38 | 0.0 | 0.0 | 0.00 | 0.00 | 0.00 | 78 | 1012.7 | |
| 20260510084016 | 38 | 0.0 | 0.0 | 0.00 | 0.00 | 0.00 | 78 | 1012.6 | |
| 20260510083516 | 39 | 0.0 | 0.0 | 0.00 | 0.00 | 0.00 | 78 | 1012.6 | |
| 20260510083036 | 39 | 0.0 | 0.9 | 0.00 | 0.00 | 0.00 | 77 | 1012.5 | |
| 20260510082537 | 39 | 109 | 0.0 | 1.7 | 0.00 | 0.00 | 0.00 | 76 | 1012.4 |
| 20260510082016 | 40 | 108 | 0.9 | 2.6 | 0.00 | 0.00 | 0.00 | 76 | 1012.4 |
| 20260510081536 | 40 | 108 | 0.9 | 2.6 | 0.00 | 0.00 | 0.00 | 76 | 1012.2 |
| 20260510081017 | 40 | 108 | 1.7 | 2.6 | 0.00 | 0.00 | 0.00 | 74 | 1012.2 |
| 20260510080516 | 41 | 109 | 0.9 | 2.6 | 0.00 | 0.00 | 0.00 | 72 | 1012.1 |
| 20260510080037 | 41 | 108 | 0.9 | 2.6 | 0.00 | 0.00 | 0.00 | 71 | 1012.1 |
| 20260510075536 | 41 | 108 | 0.9 | 2.6 | 0.00 | 0.00 | 0.00 | 70 | 1012.1 |
| 20260510075036 | 42 | 112 | 0.9 | 2.6 | 0.00 | 0.00 | 0.00 | 67 | 1012.0 |
| 20260510074516 | 43 | 112 | 0.9 | 2.6 | 0.00 | 0.00 | 0.00 | 65 | 1011.9 |
| 20260510074017 | 43 | 113 | 0.0 | 2.6 | 0.00 | 0.00 | 0.00 | 64 | 1011.8 |
| 20260510073516 | 43 | 113 | 0.9 | 2.6 | 0.00 | 0.00 | 0.00 | 63 | 1011.9 |
| 20260510073016 | 44 | 103 | 1.7 | 4.3 | 0.00 | 0.00 | 0.00 | 62 | 1011.6 |
| 20260510072557 | 44 | 66 | 1.7 | 7.0 | 0.00 | 0.00 | 0.00 | 61 | 1011.7 |
| 20260510072016 | 44 | 63 | 2.6 | 7.0 | 0.00 | 0.00 | 0.00 | 61 | 1011.6 |
| 20260510071516 | 44 | 56 | 2.6 | 7.8 | 0.00 | 0.00 | 0.00 | 61 | 1011.6 |
| 20260510071016 | 44 | 47 | 2.6 | 7.8 | 0.00 | 0.00 | 0.00 | 63 | 1011.6 |
| 20260510070516 | 44 | 51 | 2.6 | 7.8 | 0.00 | 0.00 | 0.00 | 64 | 1011.5 |
| 20260510070017 | 44 | 44 | 3.5 | 8.7 | 0.00 | 0.00 | 0.00 | 65 | 1011.5 |
| 20260510065516 | 44 | 51 | 2.6 | 8.7 | 0.00 | 0.00 | 0.00 | 65 | 1011.5 |
| 20260510065016 | 44 | 50 | 1.7 | 7.0 | 0.00 | 0.00 | 0.00 | 66 | 1011.4 |
| 20260510064517 | 44 | 32 | 2.6 | 8.7 | 0.00 | 0.00 | 0.00 | 66 | 1011.4 |
| 20260510064016 | 44 | 29 | 4.3 | 8.7 | 0.00 | 0.00 | 0.00 | 67 | 1011.4 |
| 20260510063516 | 44 | 26 | 3.5 | 7.8 | 0.00 | 0.00 | 0.00 | 68 | 1011.2 |
| 20260510063017 | 44 | 43 | 2.6 | 7.8 | 0.00 | 0.00 | 0.00 | 70 | 1011.3 |
| 20260510062516 | 43 | 17 | 2.6 | 7.0 | 0.00 | 0.00 | 0.00 | 71 | 1011.1 |
| 20260510062016 | 43 | 15 | 2.6 | 7.0 | 0.00 | 0.00 | 0.00 | 73 | 1011.0 |
| 20260510061536 | 43 | 15 | 3.5 | 6.1 | 0.00 | 0.00 | 0.00 | 75 | 1010.7 |
| 20260510061016 | 43 | 11 | 2.6 | 6.1 | 0.00 | 0.00 | 0.00 | 76 | 1010.6 |
| 20260510060536 | 42 | 16 | 2.6 | 4.3 | 0.00 | 0.00 | 0.00 | 78 | 1010.4 |
| 20260510060016 | 42 | 15 | 1.7 | 4.3 | 0.00 | 0.00 | 0.00 | 81 | 1010.2 |
| 20260510055516 | 42 | 1 | 1.7 | 4.3 | 0.00 | 0.00 | 0.00 | 84 | 1010.1 |
| 20260510055016 | 42 | 351 | 1.7 | 4.3 | 0.00 | 0.00 | 0.00 | 84 | 1010.0 |
| 20260510054517 | 42 | 345 | 1.7 | 3.5 | 0.00 | 0.00 | 0.00 | 84 | 1009.9 |
| 20260510054016 | 42 | 344 | 0.9 | 2.6 | 0.00 | 0.00 | 0.00 | 84 | 1009.9 |
| 20260510053516 | 42 | 0.0 | 0.0 | 0.00 | 0.00 | 0.00 | 84 | 1009.7 | |
| 20260510053016 | 42 | 0.0 | 0.0 | 0.00 | 0.00 | 0.00 | 84 | 1009.6 | |
| 20260510052516 | 43 | 0.0 | 0.0 | 0.00 | 0.00 | 0.00 | 83 | 1009.5 | |
| 20260510052016 | 43 | 0.0 | 0.0 | 0.00 | 0.00 | 0.00 | 83 | 1009.4 | |
| 20260510051516 | 43 | 0.0 | 2.6 | 0.00 | 0.00 | 0.00 | 83 | 1009.3 | |
| 20260510051016 | 43 | 259 | 0.9 | 2.6 | 0.00 | 0.00 | 0.00 | 83 | 1009.3 |
| 20260510050516 | 43 | 289 | 0.9 | 2.6 | 0.00 | 0.00 | 0.00 | 83 | 1009.2 |
| 20260510050016 | 43 | 306 | 0.9 | 1.7 | 0.00 | 0.00 | 0.00 | 82 | 1009.1 |
| 20260510045537 | 43 | 317 | 0.0 | 1.7 | 0.00 | 0.00 | 0.00 | 79 | 1009.0 |
| 20260510045017 | 44 | 0.0 | 0.0 | 0.00 | 0.00 | 0.00 | 75 | 1009.0 | |
| 20260510044516 | 44 | 0.0 | 0.0 | 0.00 | 0.00 | 0.00 | 74 | 1008.9 | |
| 20260510044016 | 44 | 0.0 | 0.0 | 0.00 | 0.00 | 0.00 | 74 | 1008.9 | |
| 20260510043537 | 44 | 0.0 | 0.0 | 0.00 | 0.00 | 0.00 | 74 | 1008.7 | |
| 20260510043016 | 44 | 0.0 | 0.0 | 0.00 | 0.00 | 0.00 | 74 | 1008.6 | |
| 20260510042517 | 45 | 0.0 | 0.0 | 0.00 | 0.00 | 0.00 | 74 | 1008.5 | |
| 20260510042056 | 45 | 0.0 | 0.0 | 0.00 | 0.00 | 0.00 | 74 | 1008.5 | |
| 20260510041516 | 45 | 0.0 | 0.0 | 0.00 | 0.00 | 0.00 | 75 | 1008.3 | |
| 20260510041017 | 46 | 0.0 | 0.0 | 0.00 | 0.00 | 0.00 | 74 | 1008.3 | |
| 20260510040516 | 46 | 0.0 | 0.0 | 0.00 | 0.00 | 0.00 | 71 | 1008.2 | |
| 20260510040016 | 46 | 0.0 | 0.0 | 0.00 | 0.00 | 0.00 | 69 | 1008.1 | |
| 20260510035536 | 46 | 0.0 | 0.0 | 0.00 | 0.00 | 0.00 | 68 | 1008.1 | |
| 20260510035016 | 47 | 0.0 | 0.0 | 0.00 | 0.00 | 0.00 | 66 | 1008.0 | |
| 20260510034516 | 47 | 0.0 | 0.0 | 0.00 | 0.00 | 0.00 | 65 | 1008.0 | |
| 20260510034016 | 47 | 0.0 | 0.0 | 0.00 | 0.00 | 0.00 | 65 | 1008.0 | |
| 20260510033516 | 48 | 0.0 | 0.0 | 0.00 | 0.00 | 0.00 | 64 | 1008.0 | |
| 20260510033016 | 48 | 0.0 | 0.0 | 0.00 | 0.00 | 0.00 | 64 | 1007.9 | |
| 20260510032516 | 49 | 0.0 | 0.0 | 0.00 | 0.00 | 0.00 | 64 | 1007.9 | |
| 20260510032017 | 49 | 0.0 | 0.0 | 0.00 | 0.00 | 0.00 | 63 | 1007.9 | |
| 20260510031537 | 50 | 0.0 | 0.0 | 0.00 | 0.00 | 0.00 | 62 | 1007.8 | |
| 20260510031016 | 50 | 0.0 | 0.0 | 0.00 | 0.00 | 0.00 | 61 | 1007.7 | |
| 20260510030516 | 51 | 0.0 | 0.0 | 0.00 | 0.00 | 0.00 | 61 | 1007.7 | |
| 20260510030016 | 51 | 0.0 | 0.0 | 0.00 | 0.00 | 0.00 | 59 | 1007.5 | |
| 20260510025516 | 51 | 0.0 | 0.9 | 0.00 | 0.00 | 0.00 | 59 | 1007.5 | |
| 20260510025016 | 52 | 317 | 0.0 | 0.9 | 0.00 | 0.00 | 0.00 | 58 | 1007.5 |
| 20260510024516 | 52 | 0.0 | 0.9 | 0.00 | 0.00 | 0.00 | 57 | 1007.5 | |
| 20260510024016 | 53 | 317 | 0.0 | 0.9 | 0.00 | 0.00 | 0.00 | 56 | 1007.4 |
| 20260510023516 | 53 | 0.0 | 2.6 | 0.00 | 0.00 | 0.00 | 55 | 1007.3 | |
| 20260510023017 | 53 | 313 | 0.0 | 2.6 | 0.00 | 0.00 | 0.00 | 55 | 1007.2 |
| 20260510022517 | 53 | 305 | 0.0 | 2.6 | 0.00 | 0.00 | 0.00 | 55 | 1007.2 |
| 20260510022016 | 53 | 301 | 0.9 | 2.6 | 0.00 | 0.00 | 0.00 | 54 | 1007.1 |
| 20260510021516 | 54 | 300 | 0.9 | 2.6 | 0.00 | 0.00 | 0.00 | 53 | 1007.0 |
| 20260510021036 | 54 | 301 | 1.7 | 4.3 | 0.00 | 0.00 | 0.00 | 53 | 1006.9 |
| 20260510020516 | 54 | 313 | 1.7 | 4.3 | 0.00 | 0.00 | 0.00 | 53 | 1006.8 |
| 20260510020016 | 54 | 306 | 1.7 | 4.3 | 0.00 | 0.00 | 0.00 | 53 | 1006.7 |
| 20260510015517 | 54 | 301 | 1.7 | 4.3 | 0.00 | 0.00 | 0.00 | 53 | 1006.7 |
| 20260510015016 | 55 | 312 | 1.7 | 4.3 | 0.00 | 0.00 | 0.00 | 52 | 1006.6 |
| 20260510014516 | 55 | 332 | 1.7 | 4.3 | 0.00 | 0.00 | 0.00 | 52 | 1006.5 |
| 20260510014016 | 55 | 321 | 2.6 | 7.8 | 0.00 | 0.00 | 0.00 | 52 | 1006.3 |
| 20260510013516 | 55 | 322 | 3.5 | 7.8 | 0.00 | 0.00 | 0.00 | 51 | 1006.3 |
| 20260510013036 | 55 | 316 | 2.6 | 7.0 | 0.00 | 0.00 | 0.00 | 51 | 1006.2 |
| 20260510012517 | 55 | 319 | 3.5 | 7.8 | 0.00 | 0.00 | 0.00 | 51 | 1006.0 |
| 20260510012036 | 56 | 327 | 3.5 | 10.4 | 0.00 | 0.00 | 0.00 | 50 | 1006.0 |
| 20260510011516 | 56 | 325 | 5.2 | 10.4 | 0.00 | 0.00 | 0.00 | 50 | 1005.8 |
| 20260510011037 | 56 | 334 | 5.2 | 10.4 | 0.00 | 0.00 | 0.00 | 49 | 1005.7 |
| 20260510010517 | 56 | 334 | 6.1 | 11.3 | 0.00 | 0.00 | 0.00 | 49 | 1005.5 |
| 20260510010016 | 56 | 320 | 4.3 | 11.3 | 0.00 | 0.00 | 0.00 | 48 | 1005.5 |
| 20260510005516 | 57 | 335 | 6.1 | 12.2 | 0.00 | 0.00 | 0.00 | 47 | 1005.4 |
| 20260510005036 | 57 | 325 | 7.8 | 12.2 | 0.00 | 0.00 | 0.00 | 46 | 1005.4 |
| 20260510004516 | 57 | 333 | 6.1 | 10.4 | 0.00 | 0.00 | 0.00 | 46 | 1005.3 |
| 20260510004016 | 57 | 329 | 7.0 | 13.9 | 0.00 | 0.00 | 0.00 | 45 | 1005.3 |
| 20260510003516 | 58 | 325 | 7.0 | 13.9 | 0.00 | 0.00 | 0.00 | 45 | 1005.2 |
| 20260510003017 | 58 | 328 | 8.7 | 15.6 | 0.00 | 0.00 | 0.00 | 45 | 1005.0 |
| 20260510002516 | 58 | 333 | 8.7 | 15.6 | 0.00 | 0.00 | 0.00 | 45 | 1005.0 |
| 20260510002017 | 58 | 334 | 8.7 | 14.8 | 0.00 | 0.00 | 0.00 | 44 | 1004.8 |
| 20260510001516 | 58 | 339 | 7.0 | 13.9 | 0.00 | 0.00 | 0.00 | 44 | 1004.7 |
| 20260510001015 | 59 | 343 | 7.8 | 17.4 | 0.00 | 0.00 | 0.00 | 44 | 1004.7 |
| 20260510000536 | 59 | 337 | 9.6 | 17.4 | 0.00 | 0.00 | 0.00 | 43 | 1004.6 |
| 20260510000016 | 59 | 338 | 8.7 | 14.8 | 0.00 | 0.00 | 0.00 | 40 | 1004.5 |
| 20260509235537 | 59 | 335 | 7.8 | 13.0 | 0.00 | 0.00 | 0.00 | 40 | 1004.4 |
| 20260509235016 | 60 | 324 | 8.7 | 14.8 | 0.00 | 0.00 | 0.00 | 40 | 1004.3 |
| 20260509234516 | 60 | 333 | 6.1 | 14.8 | 0.00 | 0.00 | 0.00 | 41 | 1004.2 |
| 20260509234017 | 60 | 318 | 7.8 | 17.4 | 0.00 | 0.00 | 0.00 | 41 | 1004.2 |
| 20260509233517 | 60 | 322 | 10.4 | 18.2 | 0.00 | 0.00 | 0.00 | 43 | 1004.1 |
| 20260509233017 | 61 | 316 | 10.4 | 18.2 | 0.00 | 0.00 | 0.00 | 44 | 1003.9 |
| 20260509232516 | 61 | 313 | 9.6 | 18.2 | 0.00 | 0.00 | 0.00 | 45 | 1003.8 |
| 20260509232016 | 62 | 319 | 10.4 | 18.2 | 0.00 | 0.00 | 0.00 | 45 | 1003.6 |
| 20260509231516 | 63 | 332 | 9.6 | 18.2 | 0.00 | 0.00 | 0.00 | 47 | 1003.4 |
| 20260509230515 | 64 | 309 | 9.6 | 19.1 | 0.00 | 0.00 | 0.00 | 43 | 1003.2 |
| 20260509230035 | 64 | 317 | 12.2 | 19.1 | 0.00 | 0.00 | 0.00 | 41 | 1003.0 |
| 20260509225516 | 65 | 314 | 13.0 | 19.1 | 0.00 | 0.00 | 0.00 | 40 | 1002.9 |
| 20260509225035 | 65 | 302 | 11.3 | 16.5 | 0.00 | 0.00 | 0.00 | 38 | 1002.7 |
| 20260509224515 | 66 | 302 | 8.7 | 16.5 | 0.00 | 0.00 | 0.00 | 38 | 1002.6 |
| 20260509224035 | 66 | 291 | 11.3 | 19.1 | 0.00 | 0.00 | 0.00 | 37 | 1002.4 |
| 20260509223516 | 66 | 315 | 11.3 | 19.1 | 0.00 | 0.00 | 0.00 | 36 | 1002.4 |
| 20260509223015 | 66 | 287 | 6.1 | 13.0 | 0.00 | 0.00 | 0.00 | 38 | 1002.3 |
| 20260509222516 | 66 | 299 | 7.8 | 13.0 | 0.00 | 0.00 | 0.00 | 38 | 1002.3 |
| 20260509222015 | 66 | 289 | 7.8 | 17.4 | 0.00 | 0.00 | 0.00 | 37 | 1002.2 |
| 20260509221515 | 67 | 299 | 11.3 | 18.2 | 0.00 | 0.00 | 0.00 | 37 | 1002.2 |
| 20260509221016 | 67 | 297 | 11.3 | 18.2 | 0.00 | 0.00 | 0.00 | 37 | 1002.0 |
| 20260509220515 | 67 | 306 | 8.7 | 15.6 | 0.00 | 0.00 | 0.00 | 37 | 1001.9 |
| 20260509220016 | 67 | 282 | 10.4 | 20.9 | 0.00 | 0.00 | 0.00 | 36 | 1001.9 |
| 20260509215517 | 67 | 283 | 13.9 | 24.3 | 0.00 | 0.00 | 0.00 | 36 | 1001.8 |
| 20260509215037 | 67 | 282 | 13.0 | 24.3 | 0.00 | 0.00 | 0.00 | 35 | 1001.7 |
| 20260509214537 | 68 | 263 | 11.3 | 17.4 | 0.00 | 0.00 | 0.00 | 37 | 1001.6 |
| 20260509214016 | 68 | 273 | 12.2 | 23.5 | 0.00 | 0.00 | 0.00 | 37 | 1001.5 |
| 20260509213515 | 68 | 271 | 12.2 | 23.5 | 0.00 | 0.00 | 0.00 | 38 | 1001.6 |
| 20260509213056 | 68 | 249 | 8.7 | 16.5 | 0.00 | 0.00 | 0.00 | 39 | 1001.6 |
| 20260509212515 | 67 | 240 | 8.7 | 17.4 | 0.00 | 0.00 | 0.00 | 39 | 1001.6 |
| 20260509212017 | 67 | 235 | 10.4 | 17.4 | 0.00 | 0.00 | 0.00 | 42 | 1001.7 |
| 20260509211515 | 66 | 237 | 11.3 | 20.9 | 0.00 | 0.00 | 0.00 | 41 | 1001.8 |
| 20260509211016 | 66 | 243 | 12.2 | 20.9 | 0.00 | 0.00 | 0.00 | 42 | 1001.9 |
| 20260509210517 | 66 | 242 | 8.7 | 16.5 | 0.00 | 0.00 | 0.00 | 45 | 1001.8 |
| 20260509210015 | 65 | 236 | 12.2 | 17.4 | 0.00 | 0.00 | 0.00 | 45 | 1001.8 |
| 20260509205515 | 65 | 233 | 7.8 | 17.4 | 0.00 | 0.00 | 0.00 | 46 | 1001.8 |
| 20260509205015 | 65 | 258 | 8.7 | 15.6 | 0.00 | 0.00 | 0.00 | 46 | 1001.8 |
| 20260509204515 | 65 | 249 | 8.7 | 15.6 | 0.00 | 0.00 | 0.00 | 48 | 1001.9 |
| 20260509204015 | 65 | 233 | 8.7 | 13.9 | 0.00 | 0.00 | 0.00 | 48 | 1001.9 |
| 20260509203515 | 65 | 236 | 8.7 | 14.8 | 0.00 | 0.00 | 0.00 | 47 | 1001.9 |
| 20260509203035 | 66 | 232 | 8.7 | 15.6 | 0.00 | 0.00 | 0.00 | 46 | 1001.9 |
| 20260509202515 | 66 | 243 | 8.7 | 15.6 | 0.00 | 0.00 | 0.00 | 46 | 1001.9 |
| 20260509202035 | 66 | 230 | 7.8 | 15.6 | 0.00 | 0.00 | 0.00 | 47 | 1001.9 |
| 20260509201535 | 65 | 262 | 5.2 | 11.3 | 0.00 | 0.00 | 0.00 | 48 | 1002.0 |
| 20260509201015 | 65 | 252 | 6.1 | 13.9 | 0.00 | 0.00 | 0.00 | 49 | 1002.0 |
| 20260509200516 | 64 | 249 | 9.6 | 13.9 | 0.00 | 0.00 | 0.00 | 50 | 1002.0 |
| 20260509200035 | 64 | 249 | 7.0 | 13.0 | 0.00 | 0.00 | 0.00 | 52 | 1002.0 |
| 20260509195515 | 64 | 237 | 8.7 | 14.8 | 0.00 | 0.00 | 0.00 | 51 | 1002.1 |
| 20260509195016 | 63 | 234 | 8.7 | 14.8 | 0.00 | 0.00 | 0.00 | 50 | 1002.1 |
| 20260509194515 | 63 | 240 | 7.8 | 13.9 | 0.00 | 0.00 | 0.00 | 52 | 1002.1 |
| 20260509194015 | 63 | 233 | 7.0 | 13.0 | 0.00 | 0.00 | 0.00 | 53 | 1002.2 |
| 20260509193515 | 63 | 239 | 8.7 | 13.0 | 0.00 | 0.00 | 0.00 | 51 | 1002.2 |
| 20260509193035 | 62 | 227 | 7.8 | 12.2 | 0.00 | 0.00 | 0.00 | 54 | 1002.3 |
| 20260509192516 | 62 | 246 | 7.8 | 13.9 | 0.00 | 0.00 | 0.00 | 56 | 1002.2 |
| 20260509192035 | 61 | 248 | 7.0 | 13.9 | 0.00 | 0.00 | 0.00 | 58 | 1002.2 |
| 20260509191515 | 61 | 258 | 8.7 | 13.0 | 0.00 | 0.00 | 0.00 | 58 | 1002.2 |
| 20260509191016 | 61 | 258 | 7.8 | 12.2 | 0.00 | 0.00 | 0.00 | 60 | 1002.3 |
| 20260509190515 | 60 | 251 | 7.0 | 11.3 | 0.00 | 0.00 | 0.00 | 63 | 1002.2 |
| 20260509190015 | 60 | 233 | 3.5 | 10.4 | 0.00 | 0.00 | 0.00 | 69 | 1002.3 |
| 20260509185536 | 59 | 250 | 6.1 | 10.4 | 0.00 | 0.00 | 0.00 | 67 | 1002.4 |
| 20260509185015 | 58 | 238 | 5.2 | 10.4 | 0.00 | 0.00 | 0.00 | 68 | 1002.3 |
| 20260509184515 | 58 | 253 | 6.1 | 10.4 | 0.00 | 0.00 | 0.00 | 68 | 1002.4 |
| 20260509184035 | 58 | 236 | 5.2 | 10.4 | 0.00 | 0.00 | 0.00 | 68 | 1002.4 |
| 20260509183515 | 57 | 238 | 7.0 | 10.4 | 0.00 | 0.00 | 0.00 | 68 | 1002.4 |
| 20260509183015 | 57 | 227 | 6.1 | 10.4 | 0.00 | 0.00 | 0.00 | 68 | 1002.4 |